Overview Statistics Trail Chart Weather Telemetry Raw packets
 

This is the latest recevied weather packets stored in our database for station/object M0JUI-1. If no packets are shown the sender has not sent any weather packets the latest 10 day(s).

<< 3 4 5 6 7 8 9 >>
Time Temp. Humidity Pressure Rain* Wind** Luminosity Snow
1788612433 18.33° C 99% 1024 hPa 0 mm - 365 W/m² -
1788612129 18.33° C 98% 1023.9 hPa 0 mm - 331 W/m² -
1788611829 18.89° C 99% 1023.9 hPa 0 mm - 431 W/m² -
1788611530 19.44° C 98% 1023.9 hPa 0 mm - 388 W/m² -
1788611229 19.44° C 99% 1024 hPa 0 mm - 542 W/m² -
1788610929 18.89° C 99% 1023.9 hPa 0 mm - 548 W/m² -
1788610629 20° C 99% 1023.8 hPa 0 mm - 462 W/m² -
1788610329 19.44° C 99% 1023.7 hPa 0 mm - 684 W/m² -
1788610029 19.44° C 99% 1023.6 hPa 0 mm - 658 W/m² -
1788609729 19.44° C 99% 1023.8 hPa 0 mm - 727 W/m² -
1788609430 18.89° C 99% 1023.9 hPa 0 mm - 514 W/m² -
1788609129 18.33° C 99% 1023.6 hPa 0 mm - 583 W/m² -
1788608817 18.33° C 99% 1023.9 hPa 0 mm - 597 W/m² -
1788608517 17.78° C 99% 1023.7 hPa 0 mm - 626 W/m² -
1788608218 18.33° C 99% 1023.8 hPa 0 mm - 182 W/m² -
1788607917 18.33° C 99% 1023.8 hPa 0 mm - 634 W/m² -
1788607617 18.33° C 99% 1023.7 hPa 0 mm - 270 W/m² -
1788607317 18.33° C 99% 1023.6 hPa 0 mm - 229 W/m² -
1788607017 18.33° C 99% 1023.8 hPa 0 mm - 671 W/m² -
1788606705 17.78° C 99% 1023.7 hPa 0 mm - 621 W/m² -
1788606405 17.78° C 99% 1023.7 hPa 0 mm - 618 W/m² -
1788606105 17.78° C 99% 1023.7 hPa 0 mm - 110 W/m² -
1788605794 18.33° C 99% 1023.8 hPa 0 mm - 533 W/m² -
1788605493 18.33° C 99% 1023.7 hPa 0 mm - 629 W/m² -
1788605193 17.78° C 99% 1023.7 hPa 0 mm - 579 W/m² -

* Rain latest hour (hover to see other rain measurements)
** Current wind speed in m/s (hover to see current wind gust speed)